Home > Weather > Timmins > Past weeks

Flag for Canada Past Weather in Timmins, Ontario, Canada — Yesterday and Last 2 Weeks

Now
48 °F

Scattered clouds.


Feels Like: 48 °F
Forecast: 47 / 64 °F
Wind: 2 mph from Northeast

Location: Timmins

Current Time: May 25, 2016 at 11:02:38 PM

Latest Report: May 25, 2016 at 10:00 PM


Visibility: 15 mi

Pressure: 30.15 "Hg

Humidity: 76%

Dew Point: 41 °F

Location of TimminsLocation

Past Weather in Timmins — Graph

°F

Timmins Temperature Yesterday

Maximum temperature yesterday: 79 °F (at 1:00 PM)
Minimum temperature yesterday: 43 °F (at 10:00 PM)
Average temperature yesterday: 60 °F

High & Low Weather Summary for the Past Weeks

 TemperatureHumidityPressure
High86 °F (May 23, 4:00 PM)100% (May 12, 11:00 PM)30.29 "Hg (May 12, 11:00 PM)
Low23 °F (May 16, 3:00 AM)13% (May 11, 4:00 PM)29.58 "Hg (May 13, 5:00 AM)
Average51 °F58%30.01 "Hg
* Reported May 10 10:00 PM — May 25 10:00 PM, Timmins, Weather by CustomWeather, © 2016

Note: Actual official high and low records may vary slightly from our data, if they occured in-between our weather recording intervals... More about our weather records

Advertising

Timmins Weather History for the Previous 24 Hours

Scroll right to see more
 ConditionsComfort  
Time TempWeatherWind HumidityBarometerVisibility
10:00 PM
Wed, May 25
48 °FScattered clouds.2 mph76%30.15 "Hg15 mi
9:00 PM57 °FScattered clouds.5 mph48%30.13 "Hg15 mi
8:00 PM63 °FPartly sunny.6 mph34%30.13 "Hg15 mi
7:00 PM66 °FPartly sunny.7 mph32%30.13 "Hg15 mi
6:00 PM66 °FPassing clouds.3 mph32%30.14 "Hg15 mi
5:00 PM66 °FPassing clouds.10 mph35%30.15 "Hg15 mi
4:00 PM64 °FPassing clouds.5 mph37%30.17 "Hg15 mi
3:00 PM63 °FPassing clouds.9 mph45%30.18 "Hg15 mi
2:00 PM59 °FSunny.2 mph48%30.20 "Hg15 mi
1:00 PM55 °FPassing clouds.5 mph63%30.20 "Hg15 mi
12:00 PM52 °FPassing clouds.6 mph72%30.20 "Hg15 mi
11:00 AM45 °FLow clouds.7 mph87%30.21 "Hg15 mi
10:00 AM43 °FFog.6 mph87%30.21 "Hg6 mi
9:00 AM39 °FFog.6 mph100%30.19 "Hg6 mi
8:00 AM39 °FLow clouds.5 mph93%30.19 "Hg15 mi
7:00 AM39 °FMore clouds than sun.7 mph93%30.16 "Hg15 mi
6:00 AM37 °FMostly cloudy.5 mph100%30.14 "Hg15 mi
5:00 AM39 °FLight rain. Mostly cloudy.6 mph93%30.12 "Hg10 mi
4:00 AM39 °FMostly cloudy.7 mph93%30.11 "Hg15 mi
3:00 AM39 °FOvercast.5 mph93%30.10 "Hg15 mi
2:00 AM39 °FMostly cloudy.7 mph93%30.10 "Hg15 mi
1:00 AM41 °FLow clouds.9 mph93%30.08 "Hg15 mi
12:00 AM41 °FSprinkles. Mostly cloudy.7 mph100%30.09 "Hg15 mi
11:00 PM
Tue, May 24
43 °FSprinkles. Mostly cloudy.7 mph100%30.09 "Hg10 mi
Weather by CustomWeather, © 2016

See weather overviewHow to use our weather pages